Theta_e
348 348 349 352 351 346 348 345 346 343 342 341 345 345 345 345 347 347 347 347 347 343 344 345 340 348 347 350 350 347 346 336 333 334 336 341 346 340 344 348 350 350 350
349 348 349 350 351 351 350 348 344 344 345 347 348 346 345 346 347 348 348 348 346 348 343 347 344 343 343 351 350 341 342 346 343 347 342 339 342 338 345 345 347 350 349
349 348 349 349 351 351 348 348 350 350 350 350 350 350 348 348 348 348 348 348 348 349 349 349 344 340 343 344 350 348 343 341 339 340 344 338 338 341 346 346 348 349 349
348 350 349 350 349 352 351 348 350 351 350 349 350 350 350 349 349 349 348 347 346 350 350 351 351 347 348 346 343 349 344 339 337 337 340 338 339 340 347 346 346 348 348
349 349 350 347 350 352 352 352 352 352 352 351 352 351 350 350 350 351 350 350 348 348 348 346 350 348 342 344 342 343 347 343 341 339 338 335 336 342 347 348 341 341 341
346 348 349 349 352 352 352 351 351 351 351 351 352 352 349 351 348 350 351 352 351 346 350 350 345 346 347 345 341 342 343 342 341 338 339 339 337 346 349 350 347 341 342
345 349 347 349 352 351 352 351 352 352 352 348 349 351 351 351 351 349 351 351 349 346 348 349 343 345 344 342 340 340 340 342 338 336 339 341 342 347 349 346 343 342 344
345 345 343 348 351 352 350 352 352 352 347 345 349 349 352 351 350 351 349 349 351 348 349 348 346 344 342 344 337 338 342 342 339 337 342 338 339 342 349 348 345 342 343
348 343 341 349 352 353 349 349 352 349 348 348 348 350 349 349 351 351 351 350 347 348 350 348 346 346 343 342 338 338 341 342 342 342 343 337 337 342 348 344 345 346 347
349 347 351 353 353 352 347 350 351 351 350 346 348 348 351 352 351 349 347 349 349 350 347 350 349 345 343 340 340 339 341 341 343 340 342 340 339 342 343 343 344 345 344
349 350 352 352 352 347 345 350 348 350 352 348 350 350 348 349 349 350 342 343 347 351 348 351 346 346 343 343 341 339 342 343 343 341 340 340 339 346 347 344 341 341 344
348 346 350 350 350 347 343 348 348 350 349 345 343 344 344 344 347 347 345 345 347 347 348 351 348 341 350 345 349 346 344 340 344 341 340 339 339 340 349 349 344 343 342
344 345 347 348 348 343 342 347 344 343 344 343 346 348 347 347 349 349 349 349 348 348 348 346 348 342 340 342 343 344 346 341 341 341 342 340 339 340 346 347 345 343 344
346 344 345 346 344 342 343 344 339 342 342 342 343 347 348 349 350 350 350 349 349 349 348 348 347 347 345 345 342 341 341 343 344 341 340 342 339 340 345 344 344 341 346
348 344 342 341 338 339 342 344 336 340 343 344 347 349 349 350 349 349 349 349 349 349 348 348 348 349 349 347 347 345 341 339 345 345 344 343 342 341 337 336 343 342 341
346 343 339 336 336 342 345 346 346 346 347 348 348 349 348 349 349 350 350 349 350 350 348 348 347 347 346 347 346 346 345 345 346 345 345 343 343 342 341 338 338 342 342
345 339 338 338 338 344 349 349 348 348 351 350 349 350 350 348 349 350 349 350 351 349 349 348 347 348 347 347 346 346 347 347 347 346 345 344 343 341 342 342 341 339 340
346 342 338 341 346 348 348 348 349 348 348 349 350 351 350 349 350 350 350 350 349 348 349 349 348 347 347 346 348 348 347 346 347 347 346 344 344 343 342 342 341 339 340
346 345 344 344 347 349 349 349 350 350 349 349 350 350 351 350 350 350 351 351 350 347 345 347 348 347 346 348 346 347 347 348 348 348 349 348 346 344 343 342 342 341 341
345 345 345 346 347 348 349 349 350 351 350 350 349 349 348 351 351 350 351 349 348 347 345 343 341 343 347 346 345 347 348 348 348 348 348 348 347 345 345 342 341 343 340
344 344 344 345 346 347 349 349 351 351 350 350 350 349 350 350 351 349 350 349 348 346 343 339 342 347 347 345 346 346 347 347 347 346 344 345 346 346 345 344 346 345 344
343 343 344 345 346 348 349 349 349 349 349 350 350 349 349 349 349 351 352 351 350 348 343 335 341 343 346 346 345 344 347 345 346 346 343 343 343 344 344 345 345 344 341
344 343 345 345 346 348 349 347 348 348 350 350 350 349 349 350 350 352 352 351 350 345 342 339 340 341 342 344 345 344 346 347 343 344 343 342 342 341 339 337 336 333 329
343 344 345 346 347 346 347 347 347 346 348 350 353 351 349 351 353 352 353 351 349 346 340 340 339 341 339 339 345 342 343 345 345 346 344 344 343 342 338 337 333 327 324
343 344 345 346 347 346 347 343 344 346 346 348 351 352 352 352 353 353 354 352 346 343 341 340 340 338 339 337 341 340 343 343 341 341 345 340 339 342 339 337 330 324 318
342 343 344 346 347 347 347 344 345 345 345 348 350 352 352 350 352 352 353 352 348 341 342 343 340 339 337 335 336 338 342 343 340 340 338 337 334 334 341 337 327 324 320
Wind_Speed
12 15 20 20 22 22 22 26 27 24 23 25 21 21 21 20 19 18 16 16 13 14 14 11 11 11 11 12 11 13 12 11 9 9 10 13 14 17 15 13 15 18 19
17 17 19 20 21 20 20 21 23 22 22 20 20 20 20 17 15 15 14 14 12 9 11 10 9 10 10 12 10 11 10 8 8 8 8 10 12 14 14 12 13 15 18
17 18 20 20 20 19 20 20 18 17 18 18 17 16 16 15 14 11 12 12 12 7 7 7 7 8 9 10 10 11 11 9 7 8 8 8 7 11 11 12 13 13 13
19 19 20 19 19 18 18 19 17 15 16 16 13 15 13 12 10 9 9 9 10 7 4 5 5 5 7 8 9 10 11 12 7 5 7 7 7 8 11 10 10 12 13
21 20 19 19 18 17 17 16 15 14 14 14 12 12 11 9 8 7 8 7 7 6 6 4 5 5 5 6 7 9 9 6 5 8 7 6 6 5 9 12 10 12 12
22 19 19 18 17 15 15 14 14 12 12 12 11 11 11 10 8 7 7 6 6 6 5 5 4 3 4 5 6 9 5 4 5 9 9 8 8 7 5 8 11 10 11
22 20 17 16 15 14 13 14 13 12 12 10 10 9 10 10 9 8 6 5 4 3 4 5 5 5 6 8 11 11 6 3 6 7 11 10 11 10 8 6 8 9 11
23 20 16 14 14 12 12 13 12 12 11 10 9 7 8 8 9 8 7 6 4 3 3 6 7 7 8 9 10 10 9 4 4 7 10 10 11 9 10 9 8 9 9
20 18 15 14 12 11 10 10 11 10 10 10 8 6 8 8 7 7 5 5 5 4 4 4 6 6 6 7 9 10 8 4 5 9 7 10 10 11 10 9 9 8 8
19 17 15 14 12 11 9 8 9 8 9 10 8 7 7 6 5 6 6 6 4 3 3 2 4 5 5 6 8 10 8 6 6 6 8 8 9 9 10 10 10 10 8
18 16 14 14 12 11 10 9 8 7 8 7 7 7 7 7 6 5 4 5 5 6 5 3 3 4 5 5 6 7 7 6 7 7 6 8 8 7 8 9 9 9 9
19 18 16 15 13 11 9 8 9 9 8 8 8 8 8 7 6 4 3 3 4 7 5 4 4 4 4 6 7 6 8 6 7 9 5 5 8 8 9 9 9 9 9
21 18 17 15 13 11 10 10 10 9 9 10 10 8 7 7 5 5 5 4 6 6 6 6 7 6 7 7 10 10 10 9 9 9 7 5 10 9 8 10 10 11 10
21 21 19 17 15 14 12 9 9 11 11 10 9 8 6 6 6 5 4 5 6 6 5 3 8 9 9 8 10 11 11 11 11 10 7 6 7 9 7 9 10 10 10
23 23 21 19 17 14 13 10 11 12 11 9 8 6 6 5 6 5 4 5 5 4 3 4 4 6 9 9 10 11 12 13 11 11 9 8 10 12 13 13 8 9 9
24 24 23 21 19 17 15 13 13 10 9 8 6 6 5 4 5 5 5 5 2 2 1 2 2 3 4 6 7 8 8 10 11 11 10 6 8 16 11 12 10 8 10
24 24 24 23 22 21 19 16 15 12 10 8 7 7 6 6 7 6 4 4 2 2 1 3 3 3 4 7 6 8 10 11 11 10 10 7 8 14 11 11 13 10 8
25 26 26 25 24 22 20 17 13 12 12 12 13 10 9 7 6 7 5 3 2 1 4 5 5 4 5 3 2 1 2 3 5 6 10 9 9 10 11 12 11 12 10
29 29 28 27 26 23 18 14 11 9 11 12 14 14 10 7 6 4 3 4 4 1 1 2 2 1 3 6 9 8 9 7 3 3 4 7 12 11 11 10 9 10 9
31 30 30 29 28 24 19 15 12 10 7 9 12 14 13 9 4 4 3 3 4 3 1 2 0 2 4 9 14 17 17 14 11 10 9 7 7 13 10 10 9 10 8
32 32 33 32 31 27 25 22 17 15 10 8 9 8 10 5 9 5 3 4 4 3 1 0 4 9 10 11 14 20 20 19 17 15 11 13 10 8 7 7 7 5 5
37 35 36 36 35 30 31 28 22 19 13 10 8 7 8 7 4 6 5 6 6 5 2 2 8 8 10 5 6 6 3 7 18 17 16 16 15 13 13 12 12 11 9
32 36 37 38 37 33 33 28 20 17 11 11 11 10 10 11 8 7 6 6 8 6 3 3 8 8 8 7 10 4 2 2 4 9 13 14 14 15 14 14 13 10 8
37 38 38 38 37 34 31 28 27 23 17 10 5 7 10 7 7 7 7 7 8 7 5 4 6 8 8 9 12 2 3 7 2 2 5 8 9 11 11 10 9 8 8
30 38 38 36 37 34 30 28 26 23 18 14 8 6 9 9 8 9 9 8 9 8 7 5 5 7 6 9 9 5 5 6 8 4 3 3 7 7 8 7 6 7 8
32 35 32 34 35 34 32 29 26 23 19 15 13 11 12 12 11 12 10 10 10 10 8 6 5 5 7 8 9 11 10 7 7 5 3 3 5 4 7 7 4 5 6
Wind_Direction
118 106 100 107 108 112 115 119 122 133 135 134 132 136 136 135 133 133 129 125 119 116 116 111 108 105 102 99 105 107 108 108 105 99 106 104 104 111 116 111 110 109 106
126 118 113 108 111 116 118 119 126 129 132 132 135 140 138 136 135 138 134 129 131 125 122 120 114 110 110 103 105 111 112 106 98 96 106 122 97 110 111 110 109 106 103
129 126 119 118 115 116 118 117 119 123 123 126 134 139 141 141 143 145 143 138 132 130 125 126 125 124 115 117 116 118 122 123 113 113 128 144 127 120 114 101 102 103 108
138 136 130 126 124 120 118 119 119 123 124 126 140 139 141 145 148 149 151 156 144 144 140 138 138 136 128 125 131 117 124 123 105 138 138 137 135 124 129 115 119 116 109
146 143 137 132 127 122 122 121 123 125 126 131 139 135 143 150 156 160 164 173 170 172 175 179 169 166 141 140 139 133 133 134 121 156 149 147 137 141 123 127 129 127 121
150 144 139 130 125 126 121 126 129 130 130 131 135 142 146 152 157 166 174 177 185 194 181 195 187 158 145 144 137 132 125 145 133 157 163 159 169 150 139 136 133 124 126
153 150 143 136 132 127 129 133 137 137 135 144 139 150 151 155 155 162 167 163 165 160 163 164 148 150 160 163 141 143 161 179 132 152 166 156 153 153 157 156 144 145 141
158 158 150 146 137 141 139 140 142 142 139 131 141 153 155 151 152 160 160 165 145 146 158 139 143 147 159 158 164 161 154 187 228 163 159 171 165 167 157 163 166 160 157
165 164 162 161 157 155 150 144 144 142 143 140 144 165 152 160 152 149 157 145 153 176 187 149 141 136 154 165 178 181 173 162 186 154 173 173 177 169 161 176 172 169 166
174 173 175 173 174 169 160 151 150 150 152 150 159 178 169 169 168 157 165 161 173 200 197 183 125 136 159 179 190 195 196 181 181 169 159 171 178 174 171 174 177 172 179
186 185 187 186 187 183 178 163 154 169 166 155 178 186 174 183 176 174 168 177 183 215 215 183 171 163 172 200 211 210 211 199 200 175 171 175 184 179 184 179 186 188 189
194 199 201 200 198 197 188 172 183 189 184 174 189 193 197 192 183 192 196 212 233 236 223 204 185 196 204 211 211 212 219 228 220 215 224 198 190 196 201 198 196 207 199
200 205 207 207 207 208 202 199 197 195 197 196 200 202 208 214 207 219 235 242 246 235 231 209 202 236 220 226 226 220 226 239 250 243 243 235 196 202 210 208 206 209 210
205 210 209 208 211 212 208 207 205 209 210 209 208 211 220 239 236 235 252 272 263 253 249 220 222 245 249 243 243 240 233 239 250 256 258 240 215 192 209 214 216 215 211
208 209 208 206 207 205 206 207 207 212 217 218 217 227 248 270 286 293 287 272 274 272 273 254 256 241 251 251 235 239 246 246 250 250 242 233 217 199 219 232 229 221 225
211 212 207 205 202 203 206 208 208 208 216 222 223 232 248 278 295 277 270 272 289 249 259 284 284 277 270 245 246 252 251 246 245 241 244 242 218 207 227 220 226 218 225
211 210 206 204 205 208 213 216 220 220 223 228 230 233 234 264 287 276 270 270 277 170 269 270 297 309 294 259 251 263 262 261 253 238 235 228 213 212 215 217 216 225 229
212 210 207 207 206 206 213 221 232 236 233 240 248 245 239 241 264 266 255 265 262 228 258 279 289 296 352 322 242 30 50 309 280 227 226 229 205 206 214 208 215 221 229
215 213 211 209 211 210 212 224 238 225 228 238 242 240 227 227 256 259 258 254 219 269 41 207 262 133 28 79 68 81 76 69 72 170 195 223 210 207 212 210 220 223 234
219 215 215 214 216 214 211 217 211 199 219 238 244 248 244 222 239 245 227 237 222 239 108 106 98 138 110 94 75 84 76 65 78 98 89 116 186 212 210 211 240 210 224
217 217 216 217 217 216 208 209 206 212 216 227 224 223 219 228 240 243 243 218 208 172 172 57 131 126 120 108 96 82 75 66 74 85 100 100 115 134 178 221 220 188 202
212 219 217 219 216 214 208 206 210 210 213 219 221 229 232 215 247 230 233 230 224 201 217 154 165 150 142 131 109 88 56 65 65 80 93 96 98 103 103 102 108 122 122
201 211 213 211 211 209 208 211 213 209 204 215 230 242 229 230 232 232 237 242 201 196 214 165 177 173 156 170 167 126 121 119 100 65 90 99 101 110 111 111 105 98 86
205 211 212 210 208 206 209 212 210 209 210 218 236 232 208 206 214 224 226 232 215 206 192 182 172 181 181 173 196 238 164 141 141 129 84 96 113 120 121 115 98 78 53
200 208 212 213 211 210 211 214 214 219 222 222 221 215 197 204 219 222 226 222 215 210 195 179 172 181 187 187 185 172 129 147 138 139 152 131 115 132 138 126 101 69 68
202 208 214 217 216 217 215 215 217 220 217 209 215 214 220 224 228 227 227 223 216 209 205 204 215 204 196 191 196 204 185 166 178 145 115 127 140 126 167 162 129 78 86